Weather reports worldwide

Advertisment
Gogerddan, United Kingdom (99150): temperature & dewpoint: 19.09.2018 22:00:00 - 25.09.2018 22:00:00 (BST)Gogerddan, United Kingdom (99150): temperature -20cm & temperature -100cm: 19.09.2018 22:00:00 - 25.09.2018 22:00:00 (BST)Gogerddan, United Kingdom (99150): precipitation: 19.09.2018 22:00:00 - 25.09.2018 22:00:00 (BST)
Date & Time tt [°C] td [°C] tt -20cm [°C] tt -100cm [°C] rr [mm]
25.09.2018 22:00:00 11,2 7,6 - - 0,0
25.09.2018 21:00:00 9,2 6,6 - - 0,0
25.09.2018 20:00:00 10,4 6,3 - - 0,0
25.09.2018 19:00:00 12,3 5,9 - - 0,0
25.09.2018 18:00:00 13,7 6,7 - - 0,0
25.09.2018 17:00:00 14,2 6,5 - - 0,0
25.09.2018 16:00:00 15,1 7,4 - - 0,0
25.09.2018 15:00:00 14,4 6,1 - - 0,0
25.09.2018 14:00:00 14,9 5,9 - - 0,0
25.09.2018 13:00:00 13,8 6,3 - - 0,0
25.09.2018 12:00:00 13,2 6,8 - - 0,0
25.09.2018 11:00:00 12,7 7,2 - - 0,0
25.09.2018 10:00:00 10,7 6,1 13,0 14,2 0,0
25.09.2018 09:00:00 7,3 6,9 - - 0,0
25.09.2018 08:00:00 2,4 2,0 - - 0,0
25.09.2018 07:00:00 2,4 1,9 - - 0,0
25.09.2018 06:00:00 2,1 1,6 - - 0,0
25.09.2018 05:00:00 1,8 1,4 - - 0,0
25.09.2018 04:00:00 2,0 1,5 - - 0,0
25.09.2018 03:00:00 1,7 1,1 - - 0,0
25.09.2018 02:00:00 2,2 1,6 - - 0,0
25.09.2018 01:00:00 2,1 1,5 - - 0,0
25.09.2018 00:00:00 3,0 2,3 - - 0,0
24.09.2018 23:00:00 3,5 2,7 - - 0,0
24.09.2018 22:00:00 4,4 3,4 - - 0,0
24.09.2018 21:00:00 5,7 4,4 - - 0,0
24.09.2018 20:00:00 7,3 4,9 - - 0,0
24.09.2018 19:00:00 9,9 4,4 - - 0,0
24.09.2018 18:00:00 11,7 4,2 - - 0,0
24.09.2018 17:00:00 12,6 5,7 - - 0,0
24.09.2018 16:00:00 12,2 5,9 - - 0,0
24.09.2018 15:00:00 13,0 6,5 - - 0,0
24.09.2018 14:00:00 13,1 6,6 - - 0,0
24.09.2018 13:00:00 12,6 5,3 - - 0,0
24.09.2018 12:00:00 12,1 5,1 - - 0,0
24.09.2018 11:00:00 11,9 5,6 - - 0,0
24.09.2018 10:00:00 9,5 7,0 13,5 14,4 0,0
24.09.2018 09:00:00 6,7 6,5 - - 0,0
24.09.2018 08:00:00 3,4 3,1 - - 0,2
24.09.2018 07:00:00 2,8 2,4 - - 0,0
24.09.2018 06:00:00 3,0 2,6 - - 0,0
24.09.2018 05:00:00 3,5 3,1 - - 0,0
24.09.2018 04:00:00 2,9 2,6 - - 0,0
24.09.2018 03:00:00 3,2 2,7 - - 0,0
24.09.2018 02:00:00 3,3 2,7 - - 0,0
24.09.2018 01:00:00 4,3 3,5 - - 0,0
24.09.2018 00:00:00 5,4 4,3 - - 0,0
23.09.2018 23:00:00 5,3 3,6 - - 0,0
23.09.2018 22:00:00 7,5 3,9 - - 0,0
23.09.2018 21:00:00 7,9 4,7 - - 0,0
23.09.2018 20:00:00 8,4 4,6 - - 0,0
23.09.2018 19:00:00 10,1 4,4 - - 0,0
23.09.2018 18:00:00 10,7 4,1 - - 0,0
23.09.2018 17:00:00 11,5 5,7 - - 0,0
23.09.2018 16:00:00 11,6 3,9 - - 0,0
23.09.2018 15:00:00 12,0 4,0 - - 0,0
23.09.2018 14:00:00 11,9 5,4 - - 0,0
23.09.2018 13:00:00 12,4 5,7 - - 0,0
23.09.2018 12:00:00 11,9 5,7 - - 0,0
23.09.2018 11:00:00 10,9 5,5 - - 0,0
23.09.2018 10:00:00 9,8 7,9 14,0 14,7 0,0
23.09.2018 09:00:00 8,1 7,5 - - 0,2
23.09.2018 08:00:00 7,6 6,8 - - 0,6
23.09.2018 07:00:00 8,0 6,4 - - 0,4
23.09.2018 06:00:00 8,0 6,9 - - 0,0
23.09.2018 05:00:00 7,8 6,6 - - 0,0
23.09.2018 04:00:00 7,7 6,9 - - 0,0
23.09.2018 03:00:00 7,7 7,4 - - 0,0
23.09.2018 02:00:00 7,3 6,9 - - 0,0
23.09.2018 01:00:00 7,1 6,7 - - 0,0
23.09.2018 00:00:00 7,0 6,5 - - 0,0
22.09.2018 23:00:00 7,5 6,8 - - 0,0
22.09.2018 22:00:00 8,0 7,3 - - 0,0
22.09.2018 21:00:00 8,5 7,6 - - 0,0
22.09.2018 20:00:00 8,6 7,3 - - 0,0
22.09.2018 19:00:00 10,1 7,3 - - 0,0
22.09.2018 18:00:00 10,7 7,5 - - 0,0
22.09.2018 17:00:00 10,7 7,3 - - 0,0
22.09.2018 16:00:00 10,4 7,5 - - 0,0
22.09.2018 15:00:00 10,3 7,9 - - 0,2
22.09.2018 14:00:00 9,8 8,2 - - 0,8
22.09.2018 13:00:00 9,5 7,7 - - 0,4
22.09.2018 12:00:00 9,5 8,4 - - 1,6
22.09.2018 11:00:00 9,2 7,9 - - 1,4
22.09.2018 10:00:00 9,1 7,7 14,2 14,7 0,6
22.09.2018 09:00:00 9,2 7,8 - - 2,8
22.09.2018 08:00:00 9,9 7,9 - - 0,0
22.09.2018 07:00:00 10,9 6,7 - - 0,0
22.09.2018 06:00:00 11,3 6,6 - - 0,0
22.09.2018 05:00:00 11,0 6,6 - - 0,0
22.09.2018 04:00:00 11,4 6,6 - - 0,0
22.09.2018 03:00:00 11,2 6,9 - - 0,0
22.09.2018 02:00:00 11,5 6,5 - - 0,0
22.09.2018 01:00:00 11,3 6,1 - - 0,0
22.09.2018 00:00:00 11,5 6,6 - - 0,0
21.09.2018 23:00:00 12,2 6,8 - - 0,0
21.09.2018 22:00:00 12,3 6,4 - - 0,0
21.09.2018 21:00:00 12,2 7,5 - - 0,0
21.09.2018 20:00:00 12,4 6,7 - - 0,0
21.09.2018 19:00:00 12,8 7,1 - - 0,0
21.09.2018 18:00:00 12,8 7,8 - - 1,6
21.09.2018 17:00:00 13,2 7,5 - - 0,0
21.09.2018 16:00:00 13,3 7,2 - - 0,0
21.09.2018 15:00:00 12,5 7,5 - - 0,6
21.09.2018 14:00:00 12,2 7,0 - - 0,0
21.09.2018 13:00:00 11,8 6,8 - - 0,0
21.09.2018 12:00:00 11,4 6,7 - - 0,0
21.09.2018 11:00:00 11,1 6,3 - - 0,2
21.09.2018 10:00:00 9,1 6,7 14,7 14,7 0,6
21.09.2018 09:00:00 10,5 5,5 - - 0,0
21.09.2018 08:00:00 10,0 5,2 - - 0,0
21.09.2018 07:00:00 9,6 5,3 - - 0,2
21.09.2018 06:00:00 10,1 5,6 - - 0,0
21.09.2018 05:00:00 9,8 6,5 - - 0,0
21.09.2018 04:00:00 9,0 6,4 - - 2,0
21.09.2018 03:00:00 8,7 6,7 - - 1,6
21.09.2018 02:00:00 9,0 6,8 - - 0,4
21.09.2018 01:00:00 9,6 7,0 - - 0,2
21.09.2018 00:00:00 12,3 10,7 - - 0,2
20.09.2018 23:00:00 15,4 13,7 - - 1,0
20.09.2018 22:00:00 15,8 14,3 - - 1,0
20.09.2018 21:00:00 16,6 14,9 - - 1,2
20.09.2018 20:00:00 16,2 15,1 - - 2,2
20.09.2018 19:00:00 15,9 14,6 - - 3,8
20.09.2018 18:00:00 16,2 14,4 - - 1,0
20.09.2018 17:00:00 16,7 15,3 - - 2,8
20.09.2018 16:00:00 16,9 15,5 - - 5,0
20.09.2018 15:00:00 15,7 15,4 - - 4,0
20.09.2018 14:00:00 12,1 11,6 - - 7,4
20.09.2018 13:00:00 12,1 11,1 - - 5,4
20.09.2018 12:00:00 12,5 11,7 - - 1,2
20.09.2018 11:00:00 11,6 10,6 - - 0,2
20.09.2018 10:00:00 11,0 10,2 14,9 14,7 0,0
20.09.2018 09:00:00 10,6 10,0 - - 0,2
20.09.2018 08:00:00 10,2 9,8 - - 0,2
20.09.2018 07:00:00 10,1 9,7 - - 0,8
20.09.2018 06:00:00 10,0 9,7 - - 1,6
20.09.2018 05:00:00 10,0 9,6 - - 0,6
20.09.2018 04:00:00 9,9 9,4 - - 2,2
20.09.2018 03:00:00 10,0 9,2 - - 2,0
20.09.2018 02:00:00 9,9 8,7 - - 1,4
20.09.2018 01:00:00 10,4 9,5 - - 1,2
20.09.2018 00:00:00 10,6 8,7 - - 0,0
19.09.2018 23:00:00 10,3 8,5 - - 1,8
19.09.2018 22:00:00 11,7 9,0 - - 0,2

tt = temperature
td = dewpoint
tt -20cm = temperature -20cm
tt -100cm = temperature -100cm
rr = precipitation

Next stations